| time (UTC) | temp F | wind direction | speed knots | gust knots | rain 1hr in | rain 24hr in | rain mn in | humidity % | barometer mb |
| 20260507230552 | 67 | 0 | 0.0 | 7.0 | 0.00 | 0.32 | 0.00 | 53 | 1015.2 |
| 20260507230058 | 67 | 0 | 0.0 | 7.8 | 0.00 | 0.32 | 0.00 | 52 | 1015.1 |
| 20260507225552 | 67 | 0 | 4.3 | 7.8 | 0.00 | 0.32 | 0.00 | 52 | 1015.1 |
| 20260507225052 | 67 | 0 | 0.0 | 7.0 | 0.00 | 0.32 | 0.00 | 51 | 1015.1 |
| 20260507224555 | 67 | 0 | 0.0 | 7.0 | 0.00 | 0.32 | 0.00 | 51 | 1015.1 |
| 20260507224054 | 67 | 0 | 0.0 | 7.0 | 0.00 | 0.32 | 0.00 | 51 | 1015.1 |
| 20260507223553 | 67 | 309 | 0.9 | 7.0 | 0.00 | 0.32 | 0.00 | 52 | 1015.2 |
| 20260507223058 | 67 | 0 | 0.0 | 7.0 | 0.00 | 0.32 | 0.00 | 52 | 1015.2 |
| 20260507222553 | 67 | 335 | 0.0 | 8.7 | 0.00 | 0.32 | 0.00 | 51 | 1015.3 |
| 20260507222051 | 67 | 0 | 0.9 | 8.7 | 0.00 | 0.32 | 0.00 | 52 | 1015.3 |
| 20260507221552 | 67 | 0 | 0.0 | 8.7 | 0.00 | 0.32 | 0.00 | 53 | 1015.2 |
| 20260507221057 | 67 | 0 | 2.6 | 8.7 | 0.00 | 0.32 | 0.00 | 52 | 1015.3 |
| 20260507220552 | 67 | 335 | 0.0 | 5.2 | 0.00 | 0.32 | 0.00 | 49 | 1015.1 |
| 20260507220054 | 67 | 0 | 0.0 | 10.4 | 0.00 | 0.32 | 0.00 | 49 | 1015.1 |
| 20260507215554 | 67 | 10 | 0.0 | 10.4 | 0.00 | 0.32 | 0.00 | 50 | 1015.0 |
| 20260507215053 | 67 | 0 | 7.0 | 11.3 | 0.00 | 0.32 | 0.00 | 48 | 1015.0 |
| 20260507214558 | 68 | 0 | 3.5 | 11.3 | 0.00 | 0.32 | 0.00 | 49 | 1014.9 |
| 20260507214052 | 67 | 307 | 3.5 | 11.3 | 0.00 | 0.32 | 0.00 | 49 | 1015.0 |
| 20260507213553 | 67 | 0 | 0.0 | 11.3 | 0.00 | 0.32 | 0.00 | 49 | 1014.9 |
| 20260507213054 | 67 | 347 | 2.6 | 10.4 | 0.00 | 0.32 | 0.00 | 51 | 1015.0 |
| 20260507212552 | 67 | 347 | 0.9 | 11.3 | 0.00 | 0.32 | 0.00 | 52 | 1015.1 |
| 20260507212052 | 67 | 335 | 1.7 | 11.3 | 0.00 | 0.32 | 0.00 | 52 | 1014.8 |
| 20260507211554 | 67 | 333 | 2.6 | 11.3 | 0.00 | 0.32 | 0.00 | 51 | 1014.9 |
| 20260507211051 | 67 | 317 | 3.5 | 11.3 | 0.00 | 0.32 | 0.00 | 51 | 1015.0 |
| 20260507210551 | 67 | 342 | 0.0 | 10.4 | 0.00 | 0.32 | 0.00 | 54 | 1015.3 |
| 20260507210056 | 67 | 328 | 7.0 | 12.2 | 0.00 | 0.32 | 0.00 | 52 | 1015.1 |
| 20260507205552 | 67 | 3 | 7.0 | 12.2 | 0.00 | 0.32 | 0.00 | 51 | 1015.2 |
| 20260507205051 | 68 | 326 | 3.5 | 14.8 | 0.00 | 0.32 | 0.00 | 51 | 1015.1 |
| 20260507204554 | 68 | 319 | 5.2 | 14.8 | 0.00 | 0.32 | 0.00 | 49 | 1015.1 |
| 20260507204051 | 68 | 309 | 5.2 | 10.4 | 0.00 | 0.32 | 0.00 | 50 | 1015.1 |
| 20260507203554 | 68 | 0 | 0.9 | 10.4 | 0.00 | 0.32 | 0.00 | 49 | 1014.9 |
| 20260507203102 | 68 | 328 | 4.3 | 10.4 | 0.00 | 0.32 | 0.00 | 51 | 1015.1 |
| 20260507202552 | 68 | 0 | 4.3 | 9.6 | 0.00 | 0.32 | 0.00 | 50 | 1015.1 |
| 20260507202052 | 67 | 354 | 0.0 | 9.6 | 0.00 | 0.32 | 0.00 | 48 | 1015.1 |
| 20260507201553 | 68 | 0 | 0.0 | 10.4 | 0.00 | 0.32 | 0.00 | 48 | 1015.2 |
| 20260507201052 | 67 | 0 | 2.6 | 21.7 | 0.00 | 0.32 | 0.00 | 49 | 1015.2 |
| 20260507200555 | 67 | 331 | 4.3 | 21.7 | 0.00 | 0.32 | 0.00 | 49 | 1015.1 |
| 20260507200053 | 67 | 1 | 3.5 | 9.6 | 0.00 | 0.32 | 0.00 | 50 | 1015.2 |
| 20260507195554 | 67 | 0 | 7.8 | 9.6 | 0.00 | 0.34 | 0.00 | 51 | 1015.2 |
| 20260507195054 | 68 | 322 | 0.9 | 11.3 | 0.00 | 0.34 | 0.00 | 51 | 1015.2 |
| 20260507194556 | 68 | 0 | 2.6 | 13.0 | 0.00 | 0.34 | 0.00 | 52 | 1015.3 |
| 20260507194051 | 68 | 317 | 4.3 | 13.0 | 0.00 | 0.34 | 0.00 | 52 | 1015.6 |
| 20260507193554 | 68 | 339 | 7.0 | 14.8 | 0.00 | 0.34 | 0.00 | 53 | 1015.4 |
| 20260507193059 | 68 | 303 | 3.5 | 14.8 | 0.00 | 0.34 | 0.00 | 50 | 1015.5 |
| 20260507192552 | 68 | 21 | 0.0 | 12.2 | 0.00 | 0.34 | 0.00 | 50 | 1015.6 |
| 20260507192052 | 68 | 0 | 0.0 | 12.2 | 0.00 | 0.34 | 0.00 | 49 | 1015.7 |
| 20260507191601 | 68 | 332 | 9.6 | 13.9 | 0.00 | 0.34 | 0.00 | 51 | 1015.7 |
| 20260507191052 | 67 | 0 | 1.7 | 14.8 | 0.00 | 0.34 | 0.00 | 50 | 1015.8 |
| 20260507190552 | 68 | 333 | 8.7 | 14.8 | 0.00 | 0.34 | 0.00 | 50 | 1015.9 |
| 20260507190057 | 67 | 309 | 2.6 | 12.2 | 0.00 | 0.34 | 0.00 | 52 | 1016.1 |
| 20260507185552 | 67 | 309 | 7.0 | 12.2 | 0.00 | 0.34 | 0.00 | 50 | 1016.0 |
| 20260507185055 | 68 | 30 | 0.0 | 12.2 | 0.00 | 0.34 | 0.00 | 52 | 1016.0 |
| 20260507184558 | 67 | 0 | 0.0 | 14.8 | 0.00 | 0.34 | 0.00 | 53 | 1015.9 |
| 20260507184052 | 67 | 46 | 7.8 | 14.8 | 0.00 | 0.34 | 0.00 | 52 | 1016.2 |
| 20260507183551 | 67 | 44 | 0.9 | 13.9 | 0.00 | 0.34 | 0.00 | 54 | 1016.1 |
| 20260507183055 | 67 | 0 | 0.0 | 10.4 | 0.00 | 0.34 | 0.00 | 54 | 1016.2 |
| 20260507182553 | 67 | 334 | 0.9 | 13.0 | 0.00 | 0.34 | 0.00 | 52 | 1016.1 |
| 20260507182052 | 67 | 0 | 4.3 | 14.8 | 0.00 | 0.34 | 0.00 | 54 | 1016.3 |
| 20260507181558 | 66 | 0 | 3.5 | 14.8 | 0.00 | 0.34 | 0.00 | 55 | 1016.3 |
| 20260507181051 | 66 | 328 | 5.2 | 13.0 | 0.00 | 0.34 | 0.00 | 52 | 1016.4 |
| 20260507180558 | 66 | 0 | 0.0 | 7.0 | 0.00 | 0.34 | 0.00 | 57 | 1016.3 |
| 20260507180058 | 66 | 0 | 0.0 | 12.2 | 0.00 | 0.34 | 0.00 | 54 | 1016.3 |
| 20260507175551 | 66 | 8 | 1.7 | 12.2 | 0.00 | 0.34 | 0.00 | 55 | 1016.6 |
| 20260507175052 | 66 | 336 | 1.7 | 11.3 | 0.00 | 0.34 | 0.00 | 55 | 1016.6 |
| 20260507174604 | 66 | 350 | 1.7 | 10.4 | 0.00 | 0.34 | 0.00 | 56 | 1016.6 |
| 20260507174054 | 66 | 0 | 2.6 | 11.3 | 0.00 | 0.34 | 0.00 | 55 | 1016.5 |
| 20260507173552 | 66 | 336 | 1.7 | 11.3 | 0.00 | 0.34 | 0.00 | 58 | 1016.6 |
| 20260507173103 | 66 | 0 | 1.7 | 11.3 | 0.00 | 0.34 | 0.00 | 57 | 1016.7 |
| 20260507172554 | 65 | 18 | 1.7 | 12.2 | 0.00 | 0.34 | 0.00 | 58 | 1016.6 |
| 20260507172053 | 65 | 0 | 6.1 | 12.2 | 0.00 | 0.34 | 0.00 | 58 | 1016.7 |
| 20260507171611 | 65 | 316 | 3.5 | 11.3 | 0.00 | 0.34 | 0.00 | 61 | 1016.7 |
| 20260507171052 | 65 | 0 | 2.6 | 11.3 | 0.00 | 0.34 | 0.00 | 61 | 1016.8 |
| 20260507170555 | 65 | 0 | 0.0 | 9.6 | 0.00 | 0.34 | 0.00 | 60 | 1016.8 |
| 20260507170057 | 65 | 28 | 1.7 | 14.8 | 0.00 | 0.34 | 0.00 | 59 | 1016.8 |
| 20260507165558 | 65 | 0 | 2.6 | 14.8 | 0.00 | 0.34 | 0.00 | 59 | 1017.0 |
| 20260507165055 | 65 | 0 | 0.0 | 9.6 | 0.00 | 0.34 | 0.00 | 62 | 1016.9 |
| 20260507164605 | 65 | 328 | 0.0 | 7.0 | 0.00 | 0.34 | 0.00 | 60 | 1016.8 |
| 20260507164056 | 65 | 15 | 0.9 | 10.4 | 0.00 | 0.34 | 0.00 | 62 | 1016.9 |
| 20260507163553 | 64 | 0 | 1.7 | 12.2 | 0.00 | 0.34 | 0.00 | 58 | 1016.9 |
| 20260507163053 | 64 | 20 | 2.6 | 12.2 | 0.00 | 0.34 | 0.00 | 59 | 1016.9 |
| 20260507162556 | 64 | 11 | 0.0 | 16.5 | 0.00 | 0.34 | 0.00 | 62 | 1016.9 |
| 20260507162055 | 64 | 348 | 1.7 | 16.5 | 0.00 | 0.34 | 0.00 | 62 | 1016.8 |
| 20260507161603 | 64 | 358 | 1.7 | 16.5 | 0.00 | 0.34 | 0.00 | 61 | 1017.0 |
| 20260507161057 | 63 | 0 | 5.2 | 13.9 | 0.00 | 0.34 | 0.00 | 63 | 1017.1 |
| 20260507160556 | 63 | 0 | 1.7 | 13.9 | 0.00 | 0.34 | 0.00 | 63 | 1017.3 |
| 20260507160059 | 63 | 335 | 0.9 | 10.4 | 0.00 | 0.34 | 0.00 | 65 | 1017.1 |
| 20260507155555 | 63 | 0 | 1.7 | 13.0 | 0.00 | 0.34 | 0.00 | 64 | 1017.2 |
| 20260507155056 | 63 | 0 | 3.5 | 13.0 | 0.00 | 0.34 | 0.00 | 64 | 1017.2 |
| 20260507154557 | 63 | 342 | 7.0 | 13.0 | 0.00 | 0.34 | 0.00 | 65 | 1017.3 |
| 20260507154055 | 62 | 13 | 2.6 | 13.0 | 0.00 | 0.34 | 0.00 | 66 | 1017.1 |
| 20260507153552 | 62 | 311 | 7.8 | 13.0 | 0.00 | 0.34 | 0.00 | 64 | 1017.2 |
| 20260507153052 | 62 | 316 | 7.0 | 14.8 | 0.00 | 0.34 | 0.00 | 64 | 1017.2 |
| 20260507152555 | 62 | 27 | 7.8 | 14.8 | 0.00 | 0.34 | 0.00 | 67 | 1017.2 |
| 20260507152052 | 62 | 25 | 5.2 | 10.4 | 0.00 | 0.34 | 0.00 | 66 | 1017.2 |
| 20260507151552 | 62 | 30 | 7.0 | 14.8 | 0.00 | 0.34 | 0.00 | 67 | 1017.2 |
| 20260507151056 | 62 | 13 | 4.3 | 14.8 | 0.00 | 0.34 | 0.00 | 66 | 1017.1 |
| 20260507150555 | 62 | 58 | 4.3 | 14.8 | 0.00 | 0.34 | 0.00 | 65 | 1017.1 |
| 20260507145556 | 61 | 118 | 6.1 | 15.6 | 0.00 | 0.34 | 0.00 | 68 | 1017.4 |
| 20260507145055 | 61 | 55 | 7.0 | 15.6 | 0.00 | 0.34 | 0.00 | 67 | 1017.4 |
| 20260507144553 | 61 | 55 | 7.0 | 13.0 | 0.00 | 0.34 | 0.00 | 68 | 1017.4 |
| 20260507144056 | 61 | 0 | 1.7 | 13.0 | 0.00 | 0.34 | 0.00 | 71 | 1017.3 |
| 20260507143559 | 60 | 20 | 5.2 | 13.0 | 0.00 | 0.34 | 0.00 | 71 | 1017.2 |
| 20260507143104 | 60 | 46 | 5.2 | 13.0 | 0.00 | 0.34 | 0.00 | 71 | 1017.2 |
| 20260507142555 | 60 | 17 | 5.2 | 14.8 | 0.00 | 0.34 | 0.00 | 70 | 1017.1 |
| 20260507142055 | 60 | 39 | 5.2 | 14.8 | 0.00 | 0.34 | 0.00 | 72 | 1017.1 |
| 20260507141557 | 60 | 6 | 1.7 | 9.6 | 0.00 | 0.34 | 0.00 | 74 | 1017.3 |
| 20260507141053 | 59 | 10 | 3.5 | 13.0 | 0.00 | 0.34 | 0.00 | 73 | 1017.3 |
| 20260507140552 | 59 | 353 | 4.3 | 13.0 | 0.00 | 0.34 | 0.00 | 76 | 1017.4 |
| 20260507140058 | 59 | 356 | 6.1 | 13.9 | 0.00 | 0.34 | 0.00 | 76 | 1017.2 |
| 20260507135556 | 58 | 333 | 7.0 | 13.9 | 0.00 | 0.35 | 0.00 | 76 | 1017.2 |
| 20260507135056 | 58 | 349 | 6.1 | 12.2 | 0.00 | 0.35 | 0.00 | 79 | 1017.3 |
| 20260507134557 | 57 | 359 | 5.2 | 12.2 | 0.00 | 0.35 | 0.00 | 78 | 1017.0 |
| 20260507134055 | 57 | 350 | 4.3 | 10.4 | 0.00 | 0.35 | 0.00 | 81 | 1017.0 |
| 20260507133555 | 57 | 8 | 6.1 | 11.3 | 0.00 | 0.35 | 0.00 | 81 | 1016.9 |
| 20260507133058 | 57 | 322 | 6.1 | 12.2 | 0.00 | 0.35 | 0.00 | 81 | 1016.9 |
| 20260507132556 | 57 | 17 | 6.1 | 12.2 | 0.00 | 0.35 | 0.00 | 82 | 1016.9 |
| 20260507132055 | 56 | 11 | 6.1 | 12.2 | 0.00 | 0.35 | 0.00 | 82 | 1016.9 |
| 20260507131612 | 56 | 15 | 3.5 | 10.4 | 0.00 | 0.35 | 0.00 | 84 | 1016.8 |
| 20260507131057 | 56 | 15 | 4.3 | 10.4 | 0.00 | 0.35 | 0.00 | 84 | 1016.7 |
| 20260507130552 | 55 | 13 | 7.0 | 10.4 | 0.00 | 0.35 | 0.00 | 84 | 1016.8 |
| 20260507130057 | 55 | 18 | 6.1 | 11.3 | 0.00 | 0.35 | 0.00 | 84 | 1016.7 |
| 20260507125553 | 55 | 5 | 7.0 | 11.3 | 0.00 | 0.35 | 0.00 | 84 | 1016.6 |
| 20260507125055 | 54 | 348 | 7.0 | 11.3 | 0.00 | 0.35 | 0.00 | 83 | 1016.5 |
| 20260507124556 | 54 | 15 | 5.2 | 9.6 | 0.00 | 0.35 | 0.00 | 82 | 1016.4 |
| 20260507124056 | 54 | 13 | 6.1 | 8.7 | 0.00 | 0.35 | 0.00 | 81 | 1016.3 |
| 20260507123556 | 54 | 338 | 5.2 | 9.6 | 0.00 | 0.35 | 0.00 | 79 | 1016.3 |
| 20260507123106 | 53 | 307 | 5.2 | 9.6 | 0.00 | 0.35 | 0.00 | 78 | 1016.3 |
| 20260507122555 | 53 | 347 | 6.1 | 9.6 | 0.00 | 0.35 | 0.00 | 78 | 1016.1 |
| 20260507122055 | 53 | 336 | 5.2 | 9.6 | 0.00 | 0.35 | 0.00 | 77 | 1016.2 |
| 20260507121605 | 53 | 318 | 7.0 | 9.6 | 0.00 | 0.35 | 0.00 | 77 | 1016.1 |
| 20260507121056 | 53 | 335 | 4.3 | 7.0 | 0.00 | 0.35 | 0.00 | 76 | 1016.0 |
| 20260507120555 | 53 | 10 | 3.5 | 7.0 | 0.00 | 0.35 | 0.00 | 76 | 1015.9 |
| 20260507120056 | 53 | 338 | 5.2 | 8.7 | 0.00 | 0.35 | 0.00 | 75 | 1015.8 |
| 20260507115555 | 53 | 1 | 5.2 | 8.7 | 0.00 | 0.36 | 0.00 | 74 | 1015.7 |
| 20260507115055 | 53 | 30 | 3.5 | 7.0 | 0.00 | 0.36 | 0.00 | 73 | 1015.9 |
| 20260507114601 | 52 | 8 | 3.5 | 6.1 | 0.00 | 0.36 | 0.00 | 73 | 1015.7 |
| 20260507114056 | 52 | 344 | 3.5 | 7.8 | 0.00 | 0.36 | 0.00 | 73 | 1015.7 |
| 20260507113555 | 53 | 335 | 4.3 | 7.8 | 0.00 | 0.36 | 0.00 | 74 | 1015.8 |
| 20260507113100 | 53 | 338 | 4.3 | 10.4 | 0.00 | 0.36 | 0.00 | 74 | 1015.7 |
| 20260507112556 | 53 | 337 | 6.1 | 10.4 | 0.00 | 0.36 | 0.00 | 74 | 1015.8 |
| 20260507112056 | 53 | 338 | 5.2 | 9.6 | 0.00 | 0.36 | 0.00 | 75 | 1015.7 |
| 20260507111555 | 53 | 344 | 7.0 | 10.4 | 0.00 | 0.36 | 0.00 | 74 | 1015.5 |
| 20260507111058 | 53 | 333 | 6.1 | 10.4 | 0.00 | 0.36 | 0.00 | 74 | 1015.3 |
| 20260507110555 | 53 | 10 | 6.1 | 11.3 | 0.00 | 0.36 | 0.00 | 74 | 1015.3 |
| 20260507110108 | 53 | 336 | 6.1 | 12.2 | 0.00 | 0.36 | 0.00 | 75 | 1015.2 |
| 20260507105558 | 53 | 335 | 7.8 | 12.2 | 0.00 | 0.36 | 0.00 | 75 | 1015.2 |
| 20260507105056 | 53 | 334 | 7.0 | 11.3 | 0.00 | 0.36 | 0.00 | 74 | 1015.0 |
| 20260507104614 | 53 | 11 | 7.0 | 10.4 | 0.00 | 0.36 | 0.00 | 73 | 1014.9 |
| 20260507104052 | 53 | 330 | 6.1 | 9.6 | 0.00 | 0.36 | 0.00 | 72 | 1014.8 |
| 20260507103556 | 53 | 327 | 6.1 | 8.7 | 0.00 | 0.36 | 0.00 | 71 | 1014.7 |
| 20260507103057 | 53 | 335 | 4.3 | 7.8 | 0.00 | 0.36 | 0.00 | 70 | 1014.5 |
| 20260507102556 | 53 | 316 | 6.1 | 7.8 | 0.00 | 0.36 | 0.00 | 70 | 1014.6 |
| 20260507102056 | 53 | 345 | 4.3 | 7.8 | 0.00 | 0.36 | 0.00 | 70 | 1014.4 |
| 20260507101558 | 53 | 332 | 5.2 | 8.7 | 0.00 | 0.36 | 0.00 | 70 | 1014.5 |
| 20260507101055 | 53 | 337 | 6.1 | 8.7 | 0.00 | 0.36 | 0.00 | 69 | 1014.5 |
| 20260507100555 | 53 | 338 | 4.3 | 9.6 | 0.00 | 0.36 | 0.00 | 69 | 1014.6 |
| 20260507100054 | 53 | 351 | 5.2 | 9.6 | 0.00 | 0.36 | 0.00 | 69 | 1014.5 |
| 20260507095555 | 53 | 313 | 5.2 | 7.8 | 0.00 | 0.36 | 0.00 | 69 | 1014.7 |
| 20260507095055 | 53 | 345 | 5.2 | 7.0 | 0.00 | 0.36 | 0.00 | 68 | 1014.6 |
| 20260507094608 | 54 | 352 | 4.3 | 7.0 | 0.00 | 0.36 | 0.00 | 67 | 1014.5 |
| 20260507094055 | 54 | 331 | 3.5 | 7.0 | 0.00 | 0.36 | 0.00 | 66 | 1014.4 |
| 20260507093556 | 54 | 331 | 3.5 | 7.0 | 0.00 | 0.36 | 0.00 | 66 | 1014.3 |
| 20260507093059 | 54 | 331 | 3.5 | 7.0 | 0.00 | 0.36 | 0.00 | 65 | 1014.3 |
| 20260507092555 | 54 | 333 | 4.3 | 8.7 | 0.00 | 0.36 | 0.00 | 65 | 1014.3 |
| 20260507092056 | 54 | 323 | 3.5 | 9.6 | 0.00 | 0.36 | 0.00 | 64 | 1014.3 |
| 20260507091635 | 54 | 6 | 6.1 | 9.6 | 0.00 | 0.36 | 0.00 | 63 | 1014.3 |
| 20260507091056 | 54 | 333 | 5.2 | 7.8 | 0.00 | 0.36 | 0.00 | 61 | 1014.4 |
| 20260507090556 | 54 | 337 | 5.2 | 7.8 | 0.00 | 0.36 | 0.00 | 60 | 1014.2 |
| 20260507090106 | 54 | 333 | 4.3 | 8.7 | 0.00 | 0.36 | 0.00 | 59 | 1014.3 |
| 20260507085555 | 54 | 347 | 4.3 | 10.4 | 0.00 | 0.36 | 0.00 | 60 | 1014.1 |
| 20260507085056 | 54 | 340 | 6.1 | 10.4 | 0.00 | 0.36 | 0.00 | 59 | 1014.3 |
| 20260507084557 | 54 | 318 | 5.2 | 9.6 | 0.00 | 0.36 | 0.00 | 58 | 1014.4 |
| 20260507084056 | 54 | 333 | 0.0 | 9.6 | 0.00 | 0.36 | 0.00 | 56 | 1014.3 |
| 20260507083555 | 54 | 333 | 7.0 | 9.6 | 0.00 | 0.36 | 0.00 | 55 | 1014.1 |
| 20260507083053 | 54 | 351 | 6.1 | 9.6 | 0.00 | 0.36 | 0.00 | 53 | 1014.1 |
| 20260507082555 | 54 | 324 | 5.2 | 8.7 | 0.00 | 0.36 | 0.00 | 51 | 1014.2 |
| 20260507082056 | 54 | 339 | 4.3 | 7.8 | 0.00 | 0.36 | 0.00 | 48 | 1014.1 |
| 20260507081556 | 54 | 353 | 0.9 | 9.6 | 0.00 | 0.36 | 0.00 | 45 | 1014.1 |
| 20260507081055 | 54 | 341 | 4.3 | 9.6 | 0.00 | 0.36 | 0.00 | 43 | 1014.1 |
| 20260507080555 | 54 | 349 | 5.2 | 9.6 | 0.00 | 0.36 | 0.00 | 42 | 1014.1 |
| 20260507080053 | 54 | 18 | 4.3 | 8.7 | 0.00 | 0.36 | 0.00 | 42 | 1014.1 |
| 20260507075555 | 54 | 360 | 5.2 | 9.6 | 0.00 | 0.36 | 0.00 | 41 | 1014.2 |
| 20260507075052 | 54 | 13 | 5.2 | 11.3 | 0.00 | 0.36 | 0.00 | 42 | 1014.3 |
| 20260507074559 | 53 | 360 | 7.0 | 11.3 | 0.00 | 0.36 | 0.00 | 42 | 1014.4 |
| 20260507074055 | 53 | 333 | 5.2 | 9.6 | 0.00 | 0.36 | 0.00 | 42 | 1014.6 |
| 20260507073558 | 53 | 10 | 5.2 | 9.6 | 0.00 | 0.36 | 0.00 | 42 | 1014.6 |
| 20260507073100 | 53 | 328 | 7.0 | 9.6 | 0.00 | 0.36 | 0.00 | 42 | 1015.0 |
| 20260507072556 | 53 | 332 | 5.2 | 7.8 | 0.00 | 0.36 | 0.00 | 42 | 1015.0 |
| 20260507072058 | 53 | 334 | 2.6 | 8.7 | 0.00 | 0.36 | 0.00 | 42 | 1014.9 |
| 20260507071602 | 53 | 355 | 5.2 | 9.6 | 0.00 | 0.36 | 0.00 | 42 | 1014.9 |
| 20260507071055 | 53 | 348 | 5.2 | 9.6 | 0.00 | 0.36 | 0.00 | 42 | 1014.9 |
| 20260507070555 | 53 | 332 | 5.2 | 7.8 | 0.00 | 0.36 | 0.00 | 42 | 1014.6 |
| 20260507070109 | 53 | 17 | 3.5 | 9.6 | 0.00 | 0.36 | 0.00 | 42 | 1014.5 |
| 20260507065555 | 53 | 12 | 5.2 | 9.6 | 0.00 | 0.36 | 0.00 | 42 | 1014.9 |
| 20260507065055 | 53 | 120 | 5.2 | 12.2 | 0.00 | 0.36 | 0.00 | 42 | 1014.4 |
| 20260507064601 | 53 | 11 | 6.1 | 12.2 | 0.00 | 0.36 | 0.00 | 42 | 1014.0 |
| 20260507064055 | 53 | 11 | 7.0 | 12.2 | 0.00 | 0.36 | 0.00 | 43 | 1014.2 |
| 20260507063553 | 53 | 16 | 7.0 | 9.6 | 0.00 | 0.36 | 0.00 | 43 | 1013.9 |
| 20260507063102 | 53 | 9 | 6.1 | 10.4 | 0.00 | 0.36 | 0.00 | 43 | 1014.3 |
| 20260507062554 | 53 | 12 | 4.3 | 10.4 | 0.00 | 0.36 | 0.00 | 43 | 1014.6 |
| 20260507062057 | 53 | 1 | 6.1 | 10.4 | 0.00 | 0.36 | 0.00 | 43 | 1014.2 |
| 20260507061559 | 53 | 314 | 5.2 | 8.7 | 0.00 | 0.36 | 0.00 | 43 | 1014.3 |
| 20260507061057 | 53 | 4 | 4.3 | 8.7 | 0.00 | 0.36 | 0.00 | 43 | 1014.7 |
| 20260507060555 | 53 | 8 | 5.2 | 8.7 | 0.00 | 0.36 | 0.00 | 43 | 1014.6 |
| 20260507060112 | 53 | 293 | 5.2 | 8.7 | 0.00 | 0.36 | 0.00 | 43 | 1014.5 |
| 20260507055556 | 53 | 27 | 4.3 | 7.8 | 0.00 | 0.36 | 0.00 | 43 | 1014.6 |
| 20260507055055 | 53 | 19 | 2.6 | 8.7 | 0.00 | 0.36 | 0.00 | 44 | 1014.4 |
| 20260507054055 | 53 | 25 | 4.3 | 7.8 | 0.00 | 0.36 | 0.00 | 44 | 1014.5 |
| 20260507053555 | 53 | 342 | 1.7 | 6.1 | 0.00 | 0.36 | 0.00 | 44 | 1014.7 |
| 20260507053100 | 53 | 0 | 0.0 | 7.0 | 0.00 | 0.36 | 0.00 | 45 | 1014.6 |
| 20260507052555 | 53 | 38 | 0.9 | 7.0 | 0.01 | 0.36 | 0.00 | 45 | 1014.5 |
| 20260507052055 | 53 | 0 | 3.5 | 8.7 | 0.06 | 0.36 | 0.00 | 45 | 1014.1 |
| 20260507051559 | 53 | 44 | 1.7 | 8.7 | 0.29 | 0.36 | 0.00 | 46 | 1014.4 |
| 20260507051054 | 53 | 349 | 5.2 | 10.4 | 0.32 | 0.36 | 0.00 | 46 | 1014.4 |
| 20260507050555 | 53 | 19 | 5.2 | 10.4 | 0.32 | 0.36 | 0.00 | 47 | 1014.4 |
| 20260507050100 | 53 | 342 | 6.1 | 10.4 | 0.32 | 0.36 | 0.00 | 47 | 1014.6 |
| 20260507045556 | 53 | 7 | 3.5 | 10.4 | 0.32 | 0.36 | 0.36 | 48 | 1014.1 |
| 20260507045056 | 53 | 341 | 5.2 | 10.4 | 0.32 | 0.36 | 0.36 | 48 | 1013.8 |
| 20260507044605 | 53 | 21 | 5.2 | 9.6 | 0.32 | 0.36 | 0.36 | 49 | 1013.8 |
| 20260507044055 | 53 | 11 | 4.3 | 9.6 | 0.32 | 0.36 | 0.36 | 51 | 1014.2 |
| 20260507043555 | 53 | 14 | 4.3 | 7.8 | 0.32 | 0.36 | 0.36 | 52 | 1014.3 |
| 20260507043101 | 53 | 0 | 0.9 | 11.3 | 0.32 | 0.36 | 0.36 | 54 | 1014.2 |
| 20260507042553 | 53 | 6 | 3.5 | 14.8 | 0.31 | 0.35 | 0.35 | 58 | 1014.1 |
| 20260507042058 | 54 | 19 | 7.0 | 14.8 | 0.26 | 0.30 | 0.30 | 66 | 1013.9 |
| 20260507041558 | 54 | 339 | 9.6 | 13.0 | 0.03 | 0.07 | 0.07 | 76 | 1014.4 |
| 20260507041057 | 54 | 329 | 7.8 | 13.0 | 0.00 | 0.04 | 0.04 | 78 | 1014.9 |
| 20260507040555 | 54 | 339 | 7.8 | 13.0 | 0.00 | 0.04 | 0.04 | 79 | 1014.3 |
| 20260507040056 | 54 | 34 | 7.8 | 13.0 | 0.00 | 0.04 | 0.04 | 79 | 1013.8 |
| 20260507035555 | 54 | 14 | 7.0 | 13.0 | 0.00 | 0.04 | 0.04 | 80 | 1013.4 |
| 20260507035055 | 54 | 32 | 5.2 | 15.6 | 0.00 | 0.04 | 0.04 | 80 | 1013.7 |
| 20260507034600 | 55 | 15 | 6.1 | 15.6 | 0.00 | 0.04 | 0.04 | 80 | 1013.5 |
| 20260507034055 | 55 | 357 | 3.5 | 13.9 | 0.00 | 0.04 | 0.04 | 79 | 1014.2 |
| 20260507033556 | 55 | 27 | 6.1 | 13.9 | 0.00 | 0.04 | 0.04 | 79 | 1013.5 |
| 20260507033056 | 55 | 340 | 6.1 | 12.2 | 0.00 | 0.04 | 0.04 | 79 | 1014.1 |
| 20260507032555 | 55 | 23 | 7.8 | 11.3 | 0.00 | 0.04 | 0.04 | 79 | 1014.3 |
| 20260507032055 | 55 | 340 | 7.8 | 14.8 | 0.00 | 0.04 | 0.04 | 79 | 1014.3 |
| 20260507031600 | 55 | 2 | 7.8 | 14.8 | 0.00 | 0.04 | 0.04 | 79 | 1014.3 |
| 20260507031055 | 54 | 333 | 7.8 | 15.6 | 0.00 | 0.04 | 0.04 | 79 | 1014.0 |
| 20260507030555 | 54 | 354 | 7.8 | 15.6 | 0.00 | 0.04 | 0.04 | 79 | 1014.3 |
| 20260507030057 | 54 | 354 | 8.7 | 14.8 | 0.00 | 0.04 | 0.04 | 79 | 1014.3 |
| 20260507025555 | 54 | 358 | 7.0 | 12.2 | 0.00 | 0.04 | 0.04 | 79 | 1014.1 |
| 20260507025055 | 54 | 19 | 6.1 | 13.0 | 0.00 | 0.04 | 0.04 | 79 | 1014.3 |
| 20260507024602 | 54 | 0 | 5.2 | 13.0 | 0.00 | 0.04 | 0.04 | 79 | 1014.3 |
| 20260507024055 | 54 | 6 | 6.1 | 12.2 | 0.00 | 0.04 | 0.04 | 79 | 1013.9 |
| 20260507023555 | 54 | 289 | 6.1 | 12.2 | 0.00 | 0.04 | 0.04 | 79 | 1014.0 |
| 20260507023058 | 54 | 39 | 7.0 | 12.2 | 0.00 | 0.04 | 0.04 | 80 | 1013.9 |
| 20260507022555 | 54 | 13 | 7.0 | 13.0 | 0.00 | 0.04 | 0.04 | 80 | 1014.2 |
| 20260507022052 | 54 | 342 | 7.0 | 13.0 | 0.00 | 0.04 | 0.04 | 79 | 1014.1 |
| 20260507021601 | 54 | 30 | 6.1 | 12.2 | 0.00 | 0.04 | 0.04 | 79 | 1014.1 |
| 20260507021052 | 54 | 314 | 6.1 | 12.2 | 0.00 | 0.04 | 0.04 | 79 | 1013.9 |
| 20260507020556 | 54 | 337 | 7.0 | 12.2 | 0.00 | 0.04 | 0.04 | 79 | 1013.9 |
| 20260507020101 | 54 | 0 | 3.5 | 12.2 | 0.00 | 0.04 | 0.04 | 79 | 1013.6 |
| 20260507015555 | 54 | 0 | 3.5 | 13.9 | 0.00 | 0.04 | 0.04 | 80 | 1013.0 |
| 20260507015052 | 54 | 37 | 6.1 | 15.6 | 0.00 | 0.04 | 0.04 | 80 | 1013.0 |
| 20260507014553 | 54 | 23 | 7.8 | 15.6 | 0.00 | 0.04 | 0.04 | 80 | 1012.9 |
| 20260507014052 | 54 | 356 | 8.7 | 13.0 | 0.00 | 0.04 | 0.04 | 80 | 1012.9 |
| 20260507013557 | 54 | 327 | 8.7 | 13.9 | 0.00 | 0.04 | 0.04 | 79 | 1012.8 |
| 20260507013058 | 54 | 4 | 6.1 | 15.6 | 0.00 | 0.04 | 0.04 | 79 | 1012.7 |
| 20260507012556 | 55 | 356 | 8.7 | 18.2 | 0.00 | 0.04 | 0.04 | 79 | 1012.7 |
| 20260507012055 | 55 | 11 | 9.6 | 18.2 | 0.00 | 0.04 | 0.04 | 80 | 1012.6 |
| 20260507011558 | 55 | 343 | 8.7 | 15.6 | 0.00 | 0.04 | 0.04 | 80 | 1012.9 |
| 20260507011055 | 55 | 359 | 9.6 | 15.6 | 0.00 | 0.04 | 0.04 | 80 | 1012.7 |
| 20260507010555 | 55 | 5 | 7.8 | 15.6 | 0.00 | 0.04 | 0.04 | 80 | 1012.9 |
| 20260507010110 | 55 | 10 | 8.7 | 13.9 | 0.00 | 0.04 | 0.04 | 80 | 1012.9 |
| 20260507005556 | 55 | 346 | 7.8 | 13.0 | 0.00 | 0.04 | 0.04 | 81 | 1013.2 |
| 20260507005055 | 55 | 314 | 6.1 | 10.4 | 0.00 | 0.04 | 0.04 | 80 | 1013.4 |
| 20260507004554 | 55 | 323 | 4.3 | 12.2 | 0.00 | 0.04 | 0.04 | 80 | 1013.0 |
| 20260507004055 | 55 | 26 | 6.1 | 13.9 | 0.00 | 0.04 | 0.04 | 80 | 1012.9 |
| 20260507003555 | 55 | 321 | 8.7 | 15.6 | 0.00 | 0.04 | 0.04 | 81 | 1012.9 |
| 20260507003056 | 55 | 5 | 9.6 | 15.6 | 0.00 | 0.04 | 0.04 | 82 | 1012.4 |
| 20260507002554 | 55 | 350 | 7.8 | 16.5 | 0.00 | 0.04 | 0.04 | 81 | 1012.4 |
| 20260507002055 | 55 | 27 | 7.0 | 16.5 | 0.00 | 0.04 | 0.04 | 81 | 1012.4 |
| 20260507001559 | 55 | 316 | 8.7 | 16.5 | 0.00 | 0.04 | 0.04 | 82 | 1012.4 |
| 20260507001054 | 55 | 23 | 7.8 | 13.0 | 0.00 | 0.04 | 0.04 | 81 | 1012.2 |
| 20260507000557 | 56 | 3 | 7.8 | 14.8 | 0.00 | 0.04 | 0.04 | 81 | 1012.5 |
| 20260507000101 | 56 | 23 | 6.1 | 15.6 | 0.00 | 0.04 | 0.04 | 81 | 1012.7 |
| 20260506235556 | 56 | 356 | 6.1 | 15.6 | 0.00 | 0.04 | 0.04 | 81 | 1012.8 |
| 20260506235058 | 56 | 21 | 8.7 | 15.6 | 0.00 | 0.04 | 0.04 | 82 | 1012.8 |
| 20260506234602 | 56 | 326 | 7.8 | 14.8 | 0.00 | 0.04 | 0.04 | 82 | 1013.1 |
| 20260506234055 | 56 | 18 | 7.0 | 14.8 | 0.00 | 0.04 | 0.04 | 82 | 1012.8 |
| 20260506233552 | 56 | 21 | 8.7 | 14.8 | 0.00 | 0.04 | 0.04 | 82 | 1012.9 |
| 20260506233105 | 56 | 9 | 7.8 | 13.0 | 0.00 | 0.04 | 0.04 | 82 | 1012.9 |
| 20260506232554 | 56 | 340 | 7.0 | 12.2 | 0.00 | 0.04 | 0.04 | 81 | 1012.8 |
| 20260506232054 | 56 | 359 | 5.2 | 12.2 | 0.00 | 0.04 | 0.04 | 82 | 1012.8 |
| 20260506231558 | 56 | 6 | 6.1 | 12.2 | 0.00 | 0.04 | 0.04 | 82 | 1012.7 |
| 20260506231055 | 56 | 11 | 3.5 | 11.3 | 0.00 | 0.04 | 0.04 | 83 | 1012.8 |